TimeCST,TemperatureF,Dew PointF,Humidity,Sea Level PressureIn,VisibilityMPH,Wind Direction,Wind SpeedMPH,Gust SpeedMPH,PrecipitationIn,Events,Conditions,WindDirDegrees,DateUTC
12:53 AM,10.9,1.9,67,30.35,10.0,SW,10.4,-,N/A,,Clear,230,2013-12-10 06:53:00
1:53 AM,10.9,1.9,67,30.32,10.0,SW,11.5,-,N/A,,Clear,230,2013-12-10 07:53:00
2:53 AM,14.0,1.9,59,30.31,10.0,SW,15.0,-,N/A,,Clear,230,2013-12-10 08:53:00
3:53 AM,15.1,1.9,56,30.30,10.0,SW,15.0,-,N/A,,Clear,230,2013-12-10 09:53:00
4:53 AM,15.1,3.0,59,30.27,10.0,WSW,15.0,-,N/A,,Clear,240,2013-12-10 10:53:00
5:53 AM,16.0,3.9,59,30.26,10.0,SW,13.8,-,N/A,,Clear,230,2013-12-10 11:53:00
6:53 AM,16.0,3.9,59,30.29,10.0,WSW,11.5,-,N/A,,Clear,240,2013-12-10 12:53:00
7:53 AM,16.0,5.0,62,30.32,10.0,WSW,12.7,-,N/A,,Clear,250,2013-12-10 13:53:00
8:53 AM,19.0,7.0,59,30.35,10.0,WSW,11.5,-,N/A,,Clear,250,2013-12-10 14:53:00
9:53 AM,24.1,9.0,53,30.37,10.0,West,5.8,-,N/A,,Clear,260,2013-12-10 15:53:00
10:53 AM,27.0,10.9,51,30.38,10.0,West,8.1,-,N/A,,Clear,260,2013-12-10 16:53:00
11:53 AM,30.0,12.9,49,30.35,10.0,West,5.8,-,N/A,,Clear,260,2013-12-10 17:53:00
12:53 PM,34.0,12.0,40,30.31,10.0,Calm,Calm,-,N/A,,Clear,0,2013-12-10 18:53:00
1:53 PM,36.0,12.9,39,30.28,10.0,Variable,5.8,-,N/A,,Clear,0,2013-12-10 19:53:00
2:53 PM,37.0,14.0,39,30.25,10.0,Variable,4.6,-,N/A,,Clear,0,2013-12-10 20:53:00
3:53 PM,36.0,15.1,43,30.25,10.0,South,8.1,-,N/A,,Clear,190,2013-12-10 21:53:00
4:53 PM,34.0,15.1,46,30.26,10.0,South,6.9,-,N/A,,Clear,190,2013-12-10 22:53:00
5:53 PM,30.9,15.1,52,30.25,10.0,South,8.1,-,N/A,,Clear,170,2013-12-10 23:53:00
6:53 PM,30.0,14.0,51,30.25,10.0,South,6.9,-,N/A,,Clear,180,2013-12-11 00:53:00
7:53 PM,28.0,15.1,58,30.27,10.0,South,8.1,-,N/A,,Clear,190,2013-12-11 01:53:00
8:53 PM,25.0,14.0,63,30.27,10.0,South,8.1,-,N/A,,Clear,190,2013-12-11 02:53:00
9:53 PM,23.0,15.1,72,30.29,10.0,SSW,6.9,-,N/A,,Clear,210,2013-12-11 03:53:00
10:53 PM,24.1,15.1,69,30.28,10.0,SSW,9.2,-,N/A,,Clear,200,2013-12-11 04:53:00
11:53 PM,23.0,14.0,68,30.27,10.0,SSW,8.1,-,N/A,,Clear,200,2013-12-11 05:53:00